Tracking 33446 objects as of 10-Mar-2026
HD Live streaming from Space Station
objects crossing your sky now

STARLINK-35295

Track STARLINK-35295 now!
10-day predictions
STARLINK-35295 is classified as:


NORAD ID: 66070
Int'l Code: 2025-235N
Perigee: 481.4 km
Apogee: 483.2 km
Inclination: 53.2 °
Period: 94.1 minutes
Semi major axis: 6853 km
RCS: Unknown
Launch date: October 19, 2025
Source: United States (US)
Launch site: AIR FORCE EASTERN TEST RANGE (AFETR)
Your satellite tracking list
Your tracking list is empty




NASA's NSSDC Master Catalog

Two Line Element Set (TLE):
1 66070U 25235N   26069.18960395  .00043613  00000-0  14750-2 0  9996
2 66070  53.1590 243.2538 0001266  87.2846 272.8300 15.30222973 22999
Source of the keplerian elements: AFSPC